Погода в Рубцовске

Погода в Рубцовске : погода сейчас, прогноз погоды и архив. Всё, что Вы хотите узнать о погоде в Рубцовске!

Хотите узнать прогноз погоды в Рубцовске? Тогда Вам сюда: Погода в Рубцовске

Поиск расширенной информации на нашем сайте:

Полезная информация:

Другие новости

Новости СМИ2

Главная страница сайта

Новости сайта

03.07.2017

Напоминаем, что на нашем специализированном сайте Метеоцентр.Азия вы можете получить высокодетализированные автоматические прогнозы погоды по пунктам России, СНГ и мира в авиационном формате (включающие направление и скорость ветра, видимость, явления погоды, количество и форму облачности, нижнюю и верхнюю границу облачности).

Рекомендуем:

Погода в Рубцовске - сегодня

Время (UTC), дата Ветер
(°,м/с) 
Видим.   Явления Облачность Т
(°С)
Тd
(°С)
f(%) Тe
(°С)
Pmin
(гПа)
dP
(гПа)
Po
(мм)
O2
(г/м3)
Тmin Tmax R s Состояние
почвы
03 16.07.19 020 (С) 20000 м    ясно 
+20.1 +10.3 53 +22  1006.9  0.3  736  274           
06 16.07.19 030 (СВ) 20000 м    3/0 верхняя 
[Ci fib]
+24.1 +8.8 38 +24  1006.2  -0.3  736  271           
09 16.07.19 360 (С) 20000 м    6/6 600 м 
[Cu Sc]
+26.5 +8.2 31 +27  1005.8  -0.3  736  269           
12 16.07.19 030 (СВ) 20000 м    10/0 верхняя 
[Ci fib]
+25.9 +8.3 33 +26  1005.4  -0.4  736  269    +26.7       
15 16.07.19 030 (СВ) 20000 м    6/0 верхняя 
[Ci fib]
+21 +11.1 53 +24  1005.6  -0.2  735  273           
18 16.07.19 200 (Ю) 20000 м    ясно 
+17.5 +14.3 81 +27  1005.4  -0.5  735  275           
21 16.07.19 200 (Ю) 20000 м    ясно 
+15.7 +11.3 75 +19  1005.1  -0.4  735  278           
00 17.07.19 200 (Ю) 20000 м    ясно 
+15.2 +10.9 75 +18  1005.5  0.3  735  278  +14        сухая 
03 17.07.19 220 (ЮЗ) 20000 м    3/0 верхняя 
[Cc]
+24.1 +12.7 49 +30  1005.6  0.9  736  270           
06 17.07.19 220 (ЮЗ) 20000 м    3/1 1000 м верхняя 
[Cu hum|Ci fib]
+29.8 +10.6 30 +32  1004.1  -1.1  735  265           
09 17.07.19 300 (СЗ) 5{10}  20000 м    10/3 1000 м средняя, верхняя 
[Cu med, cong|Ac cast|Ci sp]
+29.9 +11.1 31 +33  1003.9  -0.1  735  265           
12 17.07.19 210 (ЮЗ) 20000 м  в посл. час гроза{ливн. осадки}  10/6 600 м кучево-дожд., верхняя 
[Cb cap|Ci sp]
+23.4 +17.4 69 +37  1005.2  0.7  735  269    +31.9  0.0     
15 17.07.19 060 (СВ) 20000 м  гроза без осадков{ливн. осадки}  10/0 кучево-дожд., верхняя 
[Cb cap|Ci sp]
+22.2 +17.3 74 +36  1004.7  -0.5  735  270           
18 17.07.19 050 (СВ) 20000 м  {гроза, ливн. осадки}  6/6 1000 м 
[Sc]
+18.9 +14.9 78 +29  1004.6  -0.4  735  274           
21 17.07.19 040 (СВ) 20000 м    10/0 верхняя 
[Ci fib]
+18.2 +14.5 79 +27  1004.5  -0.2  734  274           
00 18.07.19 340 (С) 20000 м    8/0 средняя 
[Ac cast]
+16.9 +15.3 90 +27  1005.2  0.6  735  276  +15    0.0    сухая 
03 18.07.19 340 (С) 20000 м    10/0 верхняя 
[Ci sp]
+21.9 +15.4 67 +32  1006.3  1.5  736  271           
06 18.07.19 310 (СЗ) 20000 м    10/6 600 м верхняя 
[Cu Sc|Ci sp]
+25.6 +13.8 48 +33  1006.8  0.8  737  269           
09 18.07.19 340 (С) 20000 м    10/8 600 м верхняя 
[Cu Sc|Ci sp]
+26.5 +12.9 43 +32  1006.7  737  268           
12 18.07.19 320 (СЗ) 4{10}  20000 м    10/0 верхняя 
[Ci sp]
+27.2 +10.2 34 +29  1007.1  0.4  737  268    +27.8       
15 18.07.19 320 (СЗ) 20000 м    10/0 верхняя 
[Ci fib]
+21.5 +12.7 57 +27  1008.3  0.7  737  273           
18 18.07.19 270 (З) 20000 м    8/0 верхняя 
[Ci fib]
+17.3 +14 81 +26  1008.5  -0.2  737  276           
21 18.07.19 220 (ЮЗ) 20000 м    6/0 верхняя 
[Ci fib]
+15.9 +14.6 92 +25  1008.6  737  278           
00 19.07.19 200 (Ю) 20000 м    6/0 верхняя 
[Ci fib]
+16.4 +15.2 93 +27  1009  0.5  738  277  +14.1        сухая 
03 19.07.19 240 (ЮЗ) 20000 м    10/0 верхняя 
[Ci fib]
+23.4 +15.5 61 +33  1008.1  -0.3  737  270           
Время (UTC), дата Ветер
(°,м/с) 
Видим.   Явления Облачность Т
(°С)
Тd
(°С)
f(%) Тe
(°С)
Pmin
(гПа)
dP
(гПа)
Po
(мм)
O2
(г/м3)
Тmin Tmax R s Состояние
почвы

Для получения пояснительной информации подведите курсор к названию столбца.

ПОГОДА в Рубцовске - архив

Всё, что Вы хотите узнать о погоде в Рубцовске - удобно и подробно!

Выберите нужную дату (начиная с 1 января 2018* года) и нажмите кнопку "Найти".
Будут отображены архивные сводки погоды по пункту Рубцовск, начиная с указанной даты.


Отображать данные в формате CSV (для использования в таблицах Excel)


Внимание! Наш архив погоды предназначен исключительно для личного некоммерческого использования в познавательных целях. Если Вам необходимы официальные справки о состоянии погоды (для производственных, юридических, коммерческих и т.п. целей), обращайтесь в органы Росгидромета.

*Примечание: данная дата относится к архиву по метеостанциям СССР (Россия, СНГ, Балтия).
Архив по метеостанциям Зарубежной Европы и Азии (кроме Китая) хранится 10 дней, по другим регионам земного шара (Китай, Африка, Америка, Австралия, Океания) - 1 день.

Рубцовск - район местоположения метеостанции


Название, широта, долгота, высота метеостанции:
Рубцовск 51.5°ш. 81.2°д. 219 м над ур. моря [Российская Федерация]

Дополнительная информация

В oтличие oт бoльшинства пoгoдных сайтoв мы публикуем пoдрoбную метеoинфoрмацию в детальнoм прoфессиoнальнoм фoрмате.

Характеристики температуры и влажнoсти вoздуха измеряются на высoте 2 м в тени вдали oт зданий и деревьев.
Скoрoсть ветра измеряется на высoте 10 м (на урoвне рoста челoвека скoрoсть ветра ниже в 1.5-2 раза). Если метеoстанция нахoдится в гoрoде или в лесу, тo скoрoсть ветра занижена на 2-4 м/с пo сравнению с oткрытым местoм. Скoрoсть ветра над акватoриями крупных рек и oзёр, а также на вершинах хoлмoв на 2-5 м/с выше, чем в oбычных услoвиях.
Атмoсфернoе давление в разных тoчках местнoсти мoжет значительнo oтличаться oт давления на метеoстанции, в зависимoсти oт услoвий рельефа (при пoдъёме на 10 м давление пoнижается примернo на 1 мм рт.ст.).